DW0383 Weather Reports


time (UTC)temp
C
wind
direction
speed
KPH
gust
KPH
rain 1hr
cm
rain 24hr
cm
rain mn
cm
humidity
%
barometer
mb
20260504150826 6 137 3.2 6.4 0.23 0.28 0.28 93 1006.5
20260504150320 6 127 3.2 6.4 0.23 0.28 0.28 93 1006.6
20260504141325 8 289 4.8 9.7 0.03 0.08 0.08 81 1006.5
20260504140818 8 167 1.6 14.5 0.00 0.05 0.05 79 1006.4
20260504140312 9 170 4.8 14.5 0.00 0.05 0.05 76 1006.4
20260504130326 9 281 1.6 11.3 0.00 0.05 0.05 73 1005.7
20260504120309 9 299 4.8 14.5 0.00 0.05 0.05 77 1005.8
20260504110325 7 143 1.6 6.4 0.00 0.05 0.05 86 1006.2
20260504100309 6 149 4.8 11.3 0.03 0.05 0.05 91 1006.3
20260504081816 6 191 1.6 14.5 0.00 0.03 0.03 82 1006.7
20260504081309 6 152 3.2 14.5 0.00 0.03 0.03 83 1006.7
20260504080842 6 115 1.6 6.4 0.00 0.03 0.03 83 1006.6
20260504080314 5 153 1.6 9.7 0.00 0.03 0.03 84 1006.8
20260504070318 4 103 3.2 6.4 0.00 0.03 0.03 87 1007.0
20260504050334 0 146 1.6 4.8 0.00 0.00 0.00 92 1007.3
20260504045825 0 146 1.6 4.8 0.00 0.00 0.00 92 1007.4
20260504045338 0 146 1.6 4.8 0.00 0.00 0.00 92 1007.4
20260504044819 0 146 1.6 3.2 0.00 0.00 0.00 92 1007.6
20260504044320 0 146 0.0 3.2 0.00 0.00 0.00 92 1007.6
20260504043811 0 146 1.6 3.2 0.00 0.00 0.00 92 1007.5
20260504043323 0 146 0.0 0.0 0.00 0.00 0.00 93 1007.6
20260504042815 0 146 0.0 0.0 0.00 0.00 0.00 92 1007.6
20260504042327 0 146 0.0 0.0 0.00 0.00 0.00 92 1007.7
20260504041838 0 146 0.0 0.0 0.00 0.00 0.00 91 1007.6
20260504041309 0 146 0.0 0.0 0.00 0.00 0.00 91 1007.6
20260504040821 0 146 0.0 0.0 0.00 0.00 0.00 91 1007.6
20260504040314 0 146 0.0 0.0 0.00 0.00 0.00 91 1007.7
20260504035826 0 146 0.0 0.0 0.00 0.00 0.00 91 1007.7
20260504035318 0 146 0.0 3.2 0.00 0.00 0.00 90 1007.6
20260504034810 0 146 0.0 3.2 0.00 0.00 0.00 90 1007.7
20260504034311 0 146 1.6 3.2 0.00 0.00 0.00 90 1007.7
20260504033826 0 146 1.6 3.2 0.00 0.00 0.00 90 1007.7
20260504033320 0 146 3.2 4.8 0.00 0.00 0.00 89 1007.7
20260504032813 0 146 1.6 3.2 0.00 0.00 0.00 89 1007.7
20260504032326 0 146 1.6 3.2 0.00 0.00 0.00 89 1007.7
20260504031808 0 146 1.6 3.2 0.00 0.00 0.00 88 1007.7
20260504031319 0 146 1.6 3.2 0.00 0.00 0.00 88 1007.7
20260504030810 0 146 1.6 3.2 0.00 0.00 0.00 88 1007.7
20260504030322 0 146 1.6 4.8 0.00 0.00 0.00 88 1007.7
20260504025815 0 146 3.2 4.8 0.00 0.03 0.00 87 1007.7
20260504025327 0 146 0.0 3.2 0.00 0.03 0.00 87 1007.8
20260504024840 0 146 1.6 4.8 0.00 0.03 0.00 87 1007.9
20260504024313 0 146 3.2 4.8 0.00 0.03 0.00 86 1007.9
20260504023826 0 146 0.0 4.8 0.00 0.03 0.00 86 1007.9
20260504023318 0 146 0.0 4.8 0.00 0.03 0.00 86 1008.0
20260504022814 0 146 1.6 3.2 0.00 0.03 0.00 86 1007.9
20260504022342 0 146 1.6 3.2 0.00 0.03 0.00 86 1008.0
20260504021818 0 146 1.6 4.8 0.00 0.03 0.00 86 1007.9
20260504021311 0 146 3.2 4.8 0.00 0.03 0.00 86 1008.1
20260504020821 1 146 1.6 4.8 0.00 0.03 0.00 85 1008.0
20260504020314 1 146 3.2 4.8 0.00 0.03 0.00 85 1007.9
20260504015827 1 200 1.6 3.2 0.00 0.03 0.00 84 1008.0
20260504015319 1 200 1.6 3.2 0.00 0.03 0.00 84 1007.9
20260504014812 1 200 0.0 3.2 0.00 0.03 0.00 83 1008.1
20260504014343 1 200 1.6 3.2 0.00 0.03 0.00 83 1008.0
20260504013815 1 200 1.6 3.2 0.00 0.03 0.00 82 1008.0
20260504013327 2 200 1.6 3.2 0.00 0.03 0.00 81 1008.0
20260504012820 2 200 1.6 3.2 0.00 0.03 0.00 80 1008.0
20260504012313 2 200 1.6 3.2 0.00 0.03 0.00 80 1008.0
20260504011827 2 200 1.6 3.2 0.00 0.03 0.00 79 1008.0
20260504011318 2 200 1.6 3.2 0.00 0.03 0.00 78 1007.8
20260504010810 2 200 0.0 3.2 0.00 0.03 0.00 77 1007.9
20260504010323 3 200 1.6 3.2 0.00 0.03 0.00 77 1007.8
20260504005842 3 258 0.0 1.6 0.00 0.08 0.00 76 1007.9
20260504005313 3 258 0.0 0.0 0.00 0.08 0.00 76 1007.8
20260504004826 3 258 0.0 3.2 0.00 0.08 0.00 73 1007.7
20260504004317 4 258 0.0 3.2 0.00 0.08 0.00 72 1007.7
20260504003812 4 258 0.0 1.6 0.00 0.08 0.00 71 1007.7
20260504003323 4 258 0.0 1.6 0.00 0.08 0.00 69 1007.7
20260504002837 5 258 0.0 1.6 0.00 0.08 0.00 67 1007.7
20260504002316 5 258 0.0 1.6 0.00 0.08 0.00 66 1007.7
20260504001809 5 258 0.0 1.6 0.00 0.08 0.00 68 1007.6
20260504001323 5 258 0.0 1.6 0.00 0.08 0.00 64 1007.5
20260504000836 6 258 0.0 1.6 0.00 0.08 0.00 65 1007.5
20260504000328 6 258 0.0 3.2 0.00 0.08 0.00 63 1007.6
20260503235820 6 258 1.6 3.2 0.00 0.10 0.00 64 1007.6
20260503235311 6 258 1.6 3.2 0.00 0.10 0.00 63 1007.5
20260503234811 6 258 1.6 3.2 0.00 0.10 0.00 65 1007.5
20260503234324 7 258 1.6 3.2 0.00 0.10 0.00 67 1007.4
20260503233816 7 258 1.6 3.2 0.00 0.10 0.00 66 1007.3
20260503233328 7 258 1.6 3.2 0.00 0.10 0.00 64 1007.3
20260503232820 7 258 1.6 4.8 0.00 0.10 0.00 62 1007.3
20260503232316 7 258 1.6 4.8 0.00 0.10 0.00 63 1007.3
20260503231809 7 224 1.6 4.8 0.00 0.10 0.00 66 1007.2
20260503231322 7 224 1.6 4.8 0.00 0.10 0.00 63 1007.1
20260503230815 7 224 1.6 4.8 0.00 0.10 0.00 60 1007.1
20260503230317 8 153 1.6 3.2 0.00 0.10 0.00 63 1007.3
20260503225810 8 255 0.0 3.2 0.00 0.10 0.00 59 1007.3
20260503225321 8 270 1.6 3.2 0.00 0.10 0.00 63 1007.5
20260503224813 8 295 1.6 3.2 0.00 0.10 0.00 63 1007.4
20260503224344 8 323 0.0 1.6 0.00 0.10 0.00 56 1007.4
20260503223815 8 323 1.6 3.2 0.00 0.10 0.00 51 1007.3
20260503223308 8 323 0.0 6.4 0.00 0.10 0.00 51 1007.2
20260503222819 8 315 3.2 6.4 0.00 0.10 0.00 49 1007.3
20260503222309 8 319 1.6 4.8 0.00 0.10 0.00 54 1007.3
20260503221822 8 265 1.6 3.2 0.00 0.10 0.00 50 1007.4
20260503221314 9 345 0.0 6.4 0.00 0.10 0.00 51 1007.4
20260503220827 9 318 3.2 6.4 0.00 0.10 0.00 52 1007.3
20260503220319 9 288 3.2 4.8 0.00 0.10 0.00 51 1007.3
20260503215833 9 332 0.0 4.8 0.00 0.10 0.00 50 1007.3
20260503215326 9 327 0.0 4.8 0.00 0.10 0.00 52 1007.3
20260503214819 9 339 1.6 11.3 0.00 0.10 0.00 52 1007.2
20260503214311 9 320 4.8 11.3 0.00 0.10 0.00 48 1007.3
20260503213844 9 318 1.6 9.7 0.00 0.10 0.00 53 1007.2
20260503213314 9 4 1.6 12.9 0.00 0.10 0.00 53 1007.3
20260503212826 8 307 6.4 12.9 0.00 0.10 0.00 50 1007.3
20260503212318 9 314 4.8 12.9 0.00 0.10 0.00 50 1007.2
20260503211810 9 328 3.2 12.9 0.00 0.10 0.00 52 1007.2
20260503211322 9 316 4.8 11.3 0.00 0.10 0.00 49 1007.2
20260503210814 9 360 0.0 8.0 0.00 0.10 0.00 52 1007.1
20260503210310 9 315 4.8 11.3 0.00 0.10 0.00 50 1007.2
20260503205821 9 322 1.6 11.3 0.00 0.10 0.00 52 1007.2
20260503205315 8 284 3.2 12.9 0.00 0.10 0.00 52 1007.2
20260503204827 9 292 4.8 14.5 0.00 0.10 0.00 52 1007.3
20260503204320 9 306 3.2 12.9 0.00 0.10 0.00 54 1007.3
20260503203812 9 349 1.6 11.3 0.00 0.10 0.00 53 1007.3
20260503203325 9 310 3.2 11.3 0.00 0.10 0.00 52 1007.3
20260503202816 10 312 1.6 9.7 0.00 0.10 0.00 53 1007.2
20260503202309 10 27 3.2 8.0 0.00 0.10 0.00 53 1007.3
20260503201823 10 31 3.2 8.0 0.00 0.10 0.00 52 1007.2
20260503201314 9 26 3.2 14.5 0.00 0.10 0.00 58 1007.3
20260503200825 8 315 4.8 14.5 0.00 0.10 0.00 52 1007.4
20260503200318 8 304 4.8 11.3 0.00 0.10 0.00 55 1007.4
20260503195809 8 16 3.2 6.4 0.00 0.10 0.00 58 1007.4
20260503195321 8 316 3.2 14.5 0.00 0.10 0.00 57 1007.4
20260503194812 8 308 4.8 14.5 0.00 0.10 0.00 56 1007.5
20260503194324 8 303 1.6 12.9 0.00 0.10 0.00 55 1007.6
20260503193816 8 316 4.8 14.5 0.00 0.10 0.00 58 1007.6
20260503193330 8 318 6.4 14.5 0.00 0.10 0.00 54 1007.7
20260503192821 8 313 8.0 12.9 0.00 0.10 0.00 55 1007.6
20260503192313 8 322 3.2 11.3 0.00 0.10 0.00 57 1007.7
20260503191826 8 297 6.4 12.9 0.00 0.10 0.00 56 1007.7
20260503191338 8 305 6.4 12.9 0.00 0.10 0.00 57 1007.7
20260503190810 8 325 6.4 16.1 0.00 0.10 0.00 56 1007.8
20260503190343 8 314 4.8 19.3 0.00 0.10 0.00 54 1007.8
20260503185815 8 316 11.3 19.3 0.00 0.10 0.00 57 1007.9
20260503185312 7 302 8.0 19.3 0.00 0.10 0.00 56 1008.0
20260503184826 7 318 8.0 19.3 0.00 0.10 0.00 55 1008.0
20260503184318 7 303 4.8 14.5 0.00 0.10 0.00 55 1008.1
20260503183812 7 308 9.7 14.5 0.00 0.10 0.00 56 1008.0
20260503183313 7 308 6.4 16.1 0.00 0.10 0.00 54 1008.0
20260503182826 8 349 8.0 16.1 0.00 0.10 0.00 54 1008.0
20260503182318 8 305 3.2 14.5 0.00 0.10 0.00 55 1007.9
20260503181831 8 321 4.8 14.5 0.00 0.10 0.00 56 1008.0
20260503181324 8 348 3.2 14.5 0.00 0.10 0.00 57 1008.0
20260503180825 8 315 6.4 14.5 0.00 0.10 0.00 59 1008.1
20260503180318 7 328 6.4 22.5 0.00 0.10 0.00 58 1008.0
20260503175810 7 318 8.0 22.5 0.00 0.10 0.00 56 1008.0
20260503175323 7 314 4.8 14.5 0.00 0.10 0.00 59 1008.0
20260503174815 7 314 4.8 17.7 0.00 0.10 0.00 55 1008.1
20260503174327 7 322 6.4 17.7 0.00 0.10 0.00 54 1008.1
20260503173818 7 312 8.0 20.9 0.00 0.10 0.00 54 1008.1
20260503173310 7 293 9.7 20.9 0.00 0.10 0.00 55 1008.1
20260503172822 7 338 8.0 16.1 0.00 0.10 0.00 53 1008.1
20260503172314 8 326 6.4 16.1 0.00 0.10 0.00 59 1008.1
20260503171826 8 313 8.0 14.5 0.00 0.10 0.00 51 1008.0
20260503171318 8 316 4.8 14.5 0.00 0.10 0.00 56 1008.1
20260503170810 9 297 3.2 14.5 0.00 0.10 0.00 56 1008.1
20260503170322 9 291 3.2 9.7 0.00 0.10 0.00 54 1008.1